"2009-07-21 00:00:00",1080289,0.553,157.6,33.75,0.39,21.42,109.973,24.83,25.75,21.39,0,111.1,13.13,25.66,119.6
"2009-07-21 00:00:30",1080290,0.695,214.4,70.75,0.739,21.25,109.9733,24.83,25.76,21.1,0,111.1,13.13,25.66,176.4
"2009-07-21 00:01:00",1080291,1.866,180.8,14.44,0.552,21.06,109.9781,24.84,25.78,21.02,0,111.1,13.13,25.68,142.8
"2009-07-21 00:01:30",1080292,2.582,230.1,15.91,0.405,20.65,109.9989,24.89,25.79,21.32,0,111.2,13.12,25.73,192.1
"2009-07-21 00:02:00",1080293,2.649,230.1,4.998,0.368,20.62,110.0065,24.91,25.81,21.55,0,111.2,13.12,25.75,192.1
"2009-07-21 00:02:30",1080294,2.287,215.3,5.052,0.285,20.58,110.0084,24.92,25.83,21.62,0,111.2,13.13,25.75,177.3
"2009-07-21 00:03:00",1080295,1.499,201.3,12.3,0.255,20.57,110.0239,24.96,25.86,21.5,0,111.2,13.13,25.79,163.3
"2009-07-21 00:03:30",1080296,1.464,192.4,14.48,0.335,20.6,110.0393,25,25.88,21.38,0,111.2,13.13,25.83,154.4
"2009-07-21 00:04:00",1080297,1.258,210.8,36.45,0.41,20.67,110.0432,25.01,25.93,21.06,0,111.1,13.13,25.84,172.8
"2009-07-21 00:04:30",1080298,1.554,238.8,11.8,0.289,20.67,110.0691,25.07,25.95,20.8,0,111.2,13.13,25.91,200.8
"2009-07-21 00:05:00",1080299,1.869,256.3,8.68,0.148,20.63,110.08,25.1,25.98,20.85,0,111.2,13.13,25.94,218.3
"2009-07-21 00:05:30",1080300,2.113,275.9,12.89,0.5,20.71,110.1043,25.16,26.01,20.85,0,111.2,13.13,26.00,237.9
"2009-07-21 00:06:00",1080301,1.209,290.5,9.15,0.372,20.73,110.1206,25.2,26.07,20.91,0,111.2,13.13,26.04,252.5
"2009-07-21 00:06:30",1080302,0.923,271.8,16.88,0.208,20.71,110.1377,25.25,26.12,20.81,0,111.2,13.13,26.09,233.8
"2009-07-21 00:07:00",1080303,0.597,301.4,29.28,0.241,20.67,110.1578,25.3,26.15,20.82,0,111.2,13.13,26.14,263.4
"2009-07-21 00:07:30",1080304,1.052,305.9,13.97,0.141,20.61,110.1825,25.36,26.2,20.7,0,111.2,13.13,26.20,267.9
"2009-07-21 00:08:00",1080305,1.338,330.5,20.15,0.397,20.57,110.2014,25.41,26.25,20.87,0,111.2,13.13,26.25,292.5
"2009-07-21 00:08:30",1080306,1.275,355.5,9.92,0.494,20.79,110.2233,25.47,26.28,20.95,0,111.2,13.13,26.31,317.5
"2009-07-21 00:09:00",1080307,2.342,329.8,8.23,0.41,20.46,110.2323,25.49,26.35,21.03,0,111.2,13.13,26.33,291.8
"2009-07-21 00:09:30",1080308,2.489,341.2,8.29,0.248,20.6,110.249,25.53,26.38,20.96,0,111.2,13.13,26.38,303.2
"2009-07-21 00:10:00",1080309,2.23,355.8,6.464,0.274,20.73,110.2685,25.58,26.45,20.88,0,111.2,13.13,26.43,317.8
"2009-07-21 00:10:30",1080310,2.315,351.8,8.41,0.231,20.84,110.2869,25.63,26.49,20.61,0,111.2,13.13,26.47,313.8
"2009-07-21 00:11:00",1080311,2.005,352.9,6.585,0.32,20.92,110.3099,25.69,26.54,20.38,0,111.2,13.13,26.53,314.9
"2009-07-21 00:11:30",1080312,2.597,4.927,6.235,0.405,20.85,110.336,25.76,26.59,20.17,0,111.2,13.13,26.60,326.9
"2009-07-21 00:12:00",1080313,2.209,5.63,5.559,0.281,20.85,110.352,25.8,26.64,20.21,0,111.2,13.13,26.64,327.6
"2009-07-21 00:12:30",1080314,1.37,6.311,16.22,0.59,20.98,110.3747,25.86,26.7,20.42,0,111.2,13.13,26.70,328.3
"2009-07-21 00:13:00",1080315,0.434,358.4,14.38,0.263,21.3,110.3831,25.88,26.75,20.79,0,111.2,13.13,26.72,320.4
"2009-07-21 00:13:30",1080316,0.95,334.8,31.16,0.268,20.65,110.4,25.92,26.79,20.63,0,111.2,13.12,26.76,296.8
"2009-07-21 00:14:00",1080317,0.558,7.801,15.34,0.31,20.92,110.4084,25.94,26.81,20.46,0,111.2,13.12,26.79,329.8
"2009-07-21 00:14:30",1080318,1.185,20.72,8.47,0.298,20.63,110.4263,25.99,26.84,20.44,0,111.2,13.12,26.83,342.7
"2009-07-21 00:15:00",1080319,1.241,24.36,5.074,0.175,20.63,110.4412,26.03,26.88,20.36,0,111.2,13.11,26.87,346.4
"2009-07-21 00:15:30",1080320,1.156,23.62,4.164,0.149,20.67,110.4545,26.06,26.9,20.3,0,111.2,13.11,26.91,345.6
"2009-07-21 00:16:00",1080321,0.989,21.6,10.49,0.274,20.72,110.469,26.1,26.95,20.22,0,111.2,13.11,26.94,343.6
"2009-07-21 00:16:30",1080322,0.833,14.7,11.05,0.323,20.85,110.48,26.13,26.98,20.13,0,111.2,13.11,26.97,336.7
"2009-07-21 00:17:00",1080323,0.941,16.19,7.145,0.252,20.88,110.4993,26.18,27.03,20.07,0,111.2,13.11,27.02,338.2
"2009-07-21 00:17:30",1080324,1.123,23.7,10.83,0.296,20.71,110.507,26.2,27.07,20.03,0,111.2,13.11,27.04,345.7
"2009-07-21 00:18:00",1080325,0.288,1.145,17.81,0.166,21.21,110.527,26.25,27.1,19.94,0,111.2,13.11,27.09,323.1
"2009-07-21 00:18:30",1080326,1.649,9.51,15.42,0.381,20.65,110.5288,26.25,27.13,19.9,0,111.3,13.11,27.10,331.5
"2009-07-21 00:19:00",1080327,1.7,17.65,10.17,0.246,20.76,110.5506,26.31,27.17,19.77,0,111.3,13.11,27.15,339.6
"2009-07-21 00:19:30",1080328,2.284,21.76,9.64,0.358,20.79,110.5612,26.34,27.21,19.53,0,111.3,13.11,27.18,343.8
"2009-07-21 00:20:00",1080329,2.335,4.086,6.114,0.565,20.86,110.5797,26.38,27.26,19.34,0,111.3,13.11,27.23,326.1
"2009-07-21 00:20:30",1080330,1.621,13.72,5.803,0.218,20.93,110.5798,26.38,27.3,19.29,0,111.3,13.11,27.23,335.7
"2009-07-21 00:21:00",1080331,1.75,6.172,10.9,0.262,20.93,110.5996,26.44,27.33,19.3,0,111.3,13.11,27.28,328.2
"2009-07-21 00:21:30",1080332,2.066,344.2,6.049,0.334,20.91,110.6078,26.46,27.37,19.22,0,111.3,13.11,27.30,306.2
"2009-07-21 00:22:00",1080333,2.242,346.5,5.043,0.357,21.03,110.6204,26.49,27.42,19.11,0,111.3,13.11,27.33,308.5
"2009-07-21 00:22:30",1080334,1.745,347.4,5.559,0.266,21.1,110.6383,26.54,27.45,18.95,0,111.3,13.11,27.38,309.4
"2009-07-21 00:23:00",1080335,1.6,340.4,7.197,0.111,21.1,110.6406,26.54,27.47,18.88,0,111.3,13.11,27.39,302.4
"2009-07-21 00:23:30",1080336,1.479,342.1,4.008,0.229,21,110.6515,26.57,27.51,18.86,0,111.3,13.11,27.41,304.1
"2009-07-21 00:24:00",1080337,1.638,335.7,4.918,0.251,20.95,110.6703,26.62,27.54,18.93,0,111.3,13.11,27.46,297.7
"2009-07-21 00:24:30",1080338,1.369,331.8,7.7,0.323,20.92,110.6734,26.63,27.56,18.94,0,111.3,13.11,27.47,293.8
"2009-07-21 00:25:00",1080339,2.042,341.3,8.79,0.513,20.93,110.6793,26.64,27.6,19.27,0,111.3,13.11,27.49,303.3
"2009-07-21 00:25:30",1080340,1.67,347.5,8.39,0.46,21.19,110.6863,26.66,27.62,19.66,0,111.3,13.11,27.50,309.5
"2009-07-21 00:26:00",1080341,1.185,353.7,13.32,0.323,21.28,110.7037,26.7,27.64,19.81,0,111.3,13.11,27.55,315.7
"2009-07-21 00:26:30",1080342,1.045,348.5,13.86,0.312,20.97,110.7071,26.71,27.64,19.67,0,111.3,13.11,27.56,310.5
"2009-07-21 00:27:00",1080343,1.088,339,5.811,0.395,20.84,110.7071,26.71,27.67,19.2,0,111.3,13.11,27.56,301.0
"2009-07-21 00:27:30",1080344,0.476,355.4,16.37,0.253,21.16,110.7132,26.73,27.7,19.12,0,111.3,13.11,27.57,317.4
"2009-07-21 00:28:00",1080345,0.878,334.2,5.256,0.14,20.78,110.7155,26.73,27.71,19,0,111.3,13.11,27.58,296.2
"2009-07-21 00:28:30",1080346,1.198,332.6,4.407,0.18,20.74,110.7222,26.75,27.71,18.87,0,111.3,13.11,27.60,294.6
"2009-07-21 00:29:00",1080347,1.625,328.3,4.777,0.214,20.65,110.7396,26.8,27.72,18.82,0,111.3,13.11,27.64,290.3
"2009-07-21 00:29:30",1080348,1.531,329.1,3.968,0.079,20.68,110.7407,26.8,27.74,18.85,0,111.3,13.11,27.64,291.1
"2009-07-21 00:30:00",1080349,1.592,332.6,2.425,0.073,20.77,110.7466,26.81,27.75,18.81,0,111.3,13.11,27.66,294.6
"2009-07-21 00:30:30",1080350,1.46,332,3.296,0.107,20.77,110.7552,26.84,27.76,18.75,0,111.3,13.11,27.68,294.0
"2009-07-21 00:31:00",1080351,1.166,320.4,3.686,0.171,20.79,110.7653,26.86,27.8,18.68,0,111.4,13.1,27.71,282.4
"2009-07-21 00:31:30",1080352,1.229,329.5,4.99,0.073,20.75,110.7666,26.86,27.8,18.65,0,111.4,13.1,27.71,291.5
"2009-07-21 00:32:00",1080353,1.238,340.1,2.105,0.083,20.76,110.7665,26.86,27.82,18.66,0,111.4,13.1,27.71,302.1
"2009-07-21 00:32:30",1080354,1.132,340.9,7.251,0.144,20.89,110.7727,26.88,27.83,18.7,0,111.4,13.09,27.73,302.9
"2009-07-21 00:33:00",1080355,1.66,328.4,4.365,0.12,20.71,110.7771,26.89,27.87,18.72,0,111.4,13.09,27.74,290.4
"2009-07-21 00:33:30",1080356,1.874,319.8,3.656,0.164,20.79,110.7962,26.94,27.88,18.71,0,111.4,13.09,27.79,281.8
"2009-07-21 00:34:00",1080357,2.942,321.5,2.486,0.161,20.93,110.7987,26.95,27.89,18.48,0,111.4,13.09,27.79,283.5
"2009-07-21 00:34:30",1080358,3.01,327.5,6.56,0.163,20.96,110.7972,26.94,27.89,18.41,0,111.4,13.09,27.79,289.5
"2009-07-21 00:35:00",1080359,2.676,338.7,5.505,0.236,20.97,110.7962,26.94,27.91,18.46,0,111.4,13.09,27.79,300.7
"2009-07-21 00:35:30",1080360,2.545,0.214,16.88,0.324,21.02,110.7946,26.94,27.93,18.54,0,111.4,13.09,27.78,322.2
"2009-07-21 00:36:00",1080361,1.557,357.8,10.47,0.551,21.52,110.7936,26.93,27.94,18.4,0,111.4,13.09,27.78,319.8
"2009-07-21 00:36:30",1080362,1.828,356.1,8.75,0.646,21.55,110.7896,26.92,27.94,18.36,0,111.4,13.09,27.77,318.1
"2009-07-21 00:37:00",1080363,1.829,350.4,5.741,0.236,21.4,110.7889,26.92,27.94,18.34,0,111.4,13.09,27.77,312.4
"2009-07-21 00:37:30",1080364,1.51,337.1,8.4,0.204,21.12,110.7561,26.84,27.94,18.34,0,111.4,13.09,27.68,299.1
"2009-07-21 00:38:00",1080365,1.998,330.1,6.972,0.147,21,110.7397,26.8,27.9,18.45,0,111.4,13.09,27.64,292.1
"2009-07-21 00:38:30",1080366,2.013,337,5.547,0.131,20.97,110.7462,26.81,27.89,18.57,0,111.4,13.09,27.66,299.0
"2009-07-21 00:39:00",1080367,2.551,334,5.927,0.316,21.01,110.7458,26.81,27.88,18.57,0,111.4,13.1,27.66,296.0
"2009-07-21 00:39:30",1080368,2.229,344.1,10.01,0.581,21.19,110.7551,26.84,27.87,18.51,0,111.4,13.1,27.68,306.1
"2009-07-21 00:40:00",1080369,1.712,355.2,4.379,0.492,21.42,110.7635,26.86,27.88,18.49,0,111.4,13.1,27.70,317.2
"2009-07-21 00:40:30",1080370,2.551,350.9,5.164,0.349,21.26,110.7685,26.87,27.88,18.61,0,111.4,13.09,27.72,312.9
"2009-07-21 00:41:00",1080371,1.097,360,14.19,0.494,21.46,110.7691,26.87,27.89,18.92,0,111.4,13.1,27.72,322.0
"2009-07-21 00:41:30",1080372,1.608,355,9.07,0.437,21.42,110.743,26.8,27.87,19.23,0,111.4,13.1,27.65,317.0
"2009-07-21 00:42:00",1080373,1.768,348.5,7.921,0.306,21.19,110.7113,26.72,27.85,19.32,0,111.4,13.1,27.57,310.5
"2009-07-21 00:42:30",1080374,0.923,7.068,13.38,0.416,21.34,110.6987,26.69,27.79,19.29,0,111.4,13.1,27.54,329.1
"2009-07-21 00:43:00",1080375,2.067,16.41,9.17,0.67,20.98,110.7018,26.7,27.76,19.25,0,111.4,13.1,27.54,338.4
"2009-07-21 00:43:30",1080376,2.565,21.35,8.67,0.61,20.93,110.7035,26.7,27.77,19.44,0,111.4,13.09,27.55,343.4
"2009-07-21 00:44:00",1080377,1.943,13.98,10.59,0.547,21.13,110.7035,26.7,27.76,19.45,0,111.4,13.1,27.55,336.0
"2009-07-21 00:44:30",1080378,3.457,20.1,9.63,0.793,21.13,110.7037,26.7,27.75,19.86,0,111.4,13.09,27.55,342.1
"2009-07-21 00:45:00",1080379,3.513,21.39,4.134,0.424,21.19,110.7108,26.72,27.75,20.23,0,111.4,13.09,27.57,343.4
"2009-07-21 00:45:30",1080380,2.195,17.33,9.33,0.827,21.31,110.713,26.73,27.76,20.21,0,111.4,13.1,27.57,339.3
"2009-07-21 00:46:00",1080381,2.338,25.48,9.49,0.46,21.22,110.7197,26.74,27.78,20.15,0,111.4,13.09,27.59,347.5
"2009-07-21 00:46:30",1080382,2.575,32.71,5.158,0.2,21.2,110.7214,26.75,27.77,20.45,0,111.4,13.09,27.59,354.7
"2009-07-21 00:47:00",1080383,2.619,24.59,4.801,0.383,21.21,110.7279,26.77,27.78,20.62,0,111.4,13.09,27.61,346.6
"2009-07-21 00:47:30",1080384,2.791,32.69,5.05,0.211,21.13,110.734,26.78,27.77,20.76,0,111.4,13.09,27.63,354.7
"2009-07-21 00:48:00",1080385,2.403,38.79,2.794,0.103,21.1,110.7363,26.79,27.8,20.81,0,111.4,13.09,27.63,0.8
"2009-07-21 00:48:30",1080386,2.239,35.7,5.759,0.164,21.16,110.7371,26.79,27.79,20.74,0,111.4,13.09,27.63,357.7
"2009-07-21 00:49:00",1080387,1.981,34.77,6.581,0.217,21.26,110.7368,26.79,27.8,20.61,0,111.4,13.09,27.63,356.8
"2009-07-21 00:49:30",1080388,1.681,28.93,8.03,0.204,21.25,110.7371,26.79,27.81,20.59,0,111.4,13.09,27.63,350.9
"2009-07-21 00:50:00",1080389,1.449,27.51,4.765,0.255,21.25,110.7371,26.79,27.81,20.56,0,111.4,13.09,27.63,349.5
"2009-07-21 00:50:30",1080390,0.962,3.587,14.33,0.393,21.42,110.7262,26.76,27.82,20.09,0,111.4,13.09,27.61,325.6
"2009-07-21 00:51:00",1080391,2.101,358.1,7.924,0.481,21.16,110.7245,26.76,27.8,19.5,0,111.4,13.09,27.60,320.1
"2009-07-21 00:51:30",1080392,2.4,8.08,6.173,0.446,21.25,110.7298,26.77,27.8,19.98,0,111.4,13.09,27.62,330.1
"2009-07-21 00:52:00",1080393,2.762,17.12,7.08,0.469,21.15,110.7349,26.78,27.79,19.97,0,111.4,13.09,27.63,339.1
"2009-07-21 00:52:30",1080394,2.274,17.54,8.97,0.712,21.25,110.7368,26.79,27.78,20.1,0,111.4,13.09,27.63,339.5
"2009-07-21 00:53:00",1080395,2.045,13.01,7.396,0.724,21.25,110.7371,26.79,27.79,20.06,0,111.4,13.09,27.63,335.0
"2009-07-21 00:53:30",1080396,2.821,22.26,6.906,0.481,21.14,110.7371,26.79,27.8,19.93,0,111.4,13.09,27.63,344.3
"2009-07-21 00:54:00",1080397,3.162,23.42,3.263,0.214,21.12,110.7371,26.79,27.81,19.87,0,111.4,13.09,27.63,345.4
"2009-07-21 00:54:30",1080398,2.626,27.67,2.135,0.322,21.14,110.7371,26.79,27.82,19.72,0,111.4,13.09,27.63,349.7
"2009-07-21 00:55:00",1080399,2.922,27.57,3.395,0.367,21.12,110.7371,26.79,27.82,19.84,0,111.4,13.09,27.63,349.6
"2009-07-21 00:55:30",1080400,3.851,37.07,2.234,0.29,21.18,110.7371,26.79,27.83,20.5,0,111.4,13.09,27.63,359.1
"2009-07-21 00:56:00",1080401,3.286,37.27,5.295,0.557,21.25,110.7371,26.79,27.84,20.62,0,111.4,13.09,27.63,359.3
"2009-07-21 00:56:30",1080402,2.747,28.52,2.864,0.434,21.19,110.7371,26.79,27.83,20.55,0,111.4,13.09,27.63,350.5
"2009-07-21 00:57:00",1080403,3.18,33.49,2.905,0.529,21.26,110.7371,26.79,27.82,20.39,0,111.4,13.09,27.63,355.5
"2009-07-21 00:57:30",1080404,2.756,32.75,3.776,0.504,21.22,110.7338,26.78,27.82,20.43,0,111.4,13.09,27.63,354.8
"2009-07-21 00:58:00",1080405,3.151,32.67,2.104,0.343,21.34,110.7223,26.75,27.81,20.83,0,111.4,13.09,27.60,354.7
"2009-07-21 00:58:30",1080406,3.136,34.37,5.779,0.308,21.31,110.7144,26.73,27.81,21.13,0,111.4,13.09,27.58,356.4
"2009-07-21 00:59:00",1080407,3.323,39.41,2.78,0.236,21.3,110.7046,26.71,27.79,21.29,0,111.4,13.09,27.55,1.4
"2009-07-21 00:59:30",1080408,3.511,40.43,2.147,0.359,21.26,110.7029,26.7,27.78,21.32,0,111.4,13.09,27.55,2.4
"2009-07-21 01:00:00",1080409,2.854,33.2,5.51,0.233,21.29,110.6922,26.67,27.78,21.33,0,111.4,13.09,27.52,355.2
"2009-07-21 01:00:30",1080410,2.823,23.88,2.08,0.206,21.23,110.6791,26.64,27.76,20.89,0,111.4,13.09,27.48,345.9
"2009-07-21 01:01:00",1080411,2.818,18.99,3.401,0.347,21.24,110.6769,26.63,27.72,20.74,0,111.4,13.09,27.48,341.0
"2009-07-21 01:01:30",1080412,2.965,26.82,5.739,0.608,21.3,110.6704,26.62,27.71,21.15,0,111.4,13.09,27.46,348.8
"2009-07-21 01:02:00",1080413,3.113,20.16,6.024,0.452,21.3,110.6698,26.62,27.72,21.6,0,111.4,13.09,27.46,342.2
"2009-07-21 01:02:30",1080414,3.259,28.88,5.154,0.287,21.28,110.6704,26.62,27.7,21.74,0,111.4,13.09,27.46,350.9
"2009-07-21 01:03:00",1080415,3.994,37.24,2.198,0.458,21.34,110.6639,26.6,27.68,21.96,0,111.4,13.09,27.45,359.2
"2009-07-21 01:03:30",1080416,4.421,38.73,4.58,1.132,21.33,110.646,26.55,27.68,22.01,0,111.4,13.1,27.40,0.7
"2009-07-21 01:04:00",1080417,5.599,39.46,2.388,0.185,21.3,110.6382,26.53,27.66,21.8,0,111.4,13.1,27.38,1.5
"2009-07-21 01:04:30",1080418,5.435,37.1,2.42,0.279,21.37,110.6269,26.51,27.64,21.75,0,111.4,13.1,27.35,359.1
"2009-07-21 01:05:00",1080419,4.826,35.72,1.233,0.398,21.4,110.607,26.45,27.6,21.66,0,111.4,13.1,27.30,357.7
"2009-07-21 01:05:30",1080420,4.498,37.59,1.917,0.152,21.38,110.5934,26.42,27.58,21.71,0,111.4,13.1,27.26,359.6
"2009-07-21 01:06:00",1080421,4.349,37.21,3.298,0.44,21.36,110.5761,26.38,27.55,21.95,0,111.4,13.1,27.22,359.2
"2009-07-21 01:06:30",1080422,4.475,34.52,2.797,0.621,21.33,110.5628,26.34,27.51,21.66,0,111.4,13.09,27.18,356.5
"2009-07-21 01:07:00",1080423,5.453,41.28,2.254,0.327,21.42,110.5461,26.3,27.47,22.6,0,111.3,13.09,27.14,3.3
"2009-07-21 01:07:30",1080424,5.732,40.76,1.584,0.135,21.41,110.5368,26.27,27.44,23.12,0,111.3,13.09,27.12,2.8
"2009-07-21 01:08:00",1080425,5.704,38.92,1.546,0.347,21.45,110.5189,26.23,27.41,23.11,0,111.3,13.09,27.07,0.9
"2009-07-21 01:08:30",1080426,5.861,43.59,3.254,0.333,21.46,110.4968,26.17,27.36,24.14,0,111.3,13.09,27.01,5.6
"2009-07-21 01:09:00",1080427,6.603,40.4,2.641,0.38,21.48,110.4835,26.14,27.32,24.43,0,111.3,13.09,26.98,2.4
"2009-07-21 01:09:30",1080428,7.759,46.98,2.664,0.404,21.48,110.4619,26.08,27.27,24.53,0,111.3,13.09,26.92,9.0
"2009-07-21 01:10:00",1080429,6.93,46.41,1.647,0.261,21.5,110.4417,26.03,27.23,24.38,0,111.3,13.09,26.87,8.4
"2009-07-21 01:10:30",1080430,6.301,39.93,2.671,0.715,21.51,110.4219,25.98,27.19,24.39,0,111.3,13.09,26.82,1.9
"2009-07-21 01:11:00",1080431,5.431,42.17,5.255,0.26,21.48,110.397,25.91,27.12,24.5,0,111.3,13.09,26.76,4.2
"2009-07-21 01:11:30",1080432,5.313,41.34,2.806,0.274,21.43,110.3765,25.86,27.08,24.28,0,111.3,13.09,26.70,3.3
"2009-07-21 01:12:00",1080433,5.827,46.94,5.152,0.442,21.45,110.36,25.82,27.02,24.7,0,111.3,13.1,26.66,8.9
"2009-07-21 01:12:30",1080434,5.222,47.79,4.846,0.265,21.44,110.3361,25.76,26.99,24.64,0,111.3,13.1,26.60,9.8
"2009-07-21 01:13:00",1080435,6.31,48.22,4.975,0.992,21.48,110.3249,25.73,26.94,25.07,0,111.3,13.1,26.57,10.2
"2009-07-21 01:13:30",1080436,8.52,57.84,4.992,0.584,21.73,110.2994,25.66,26.89,24.97,0,111.3,13.1,26.51,19.8
"2009-07-21 01:14:00",1080437,8.72,60.57,1.809,0.262,21.95,110.2865,25.63,26.84,24.6,0,111.3,13.1,26.47,22.6
"2009-07-21 01:14:30",1080438,8.19,62.58,2.076,0.242,21.96,110.2649,25.58,26.79,24.66,0,111.3,13.1,26.42,24.6
"2009-07-21 01:15:00",1080439,8.56,64.37,2.455,0.291,21.88,110.2534,25.55,26.74,24.69,0,111.3,13.1,26.39,26.4
"2009-07-21 01:15:30",1080440,9.18,62.78,1.3,0.287,21.8,110.2353,25.5,26.69,24.73,0,111.3,13.1,26.34,24.8
"2009-07-21 01:16:00",1080441,9.1,63.37,1.093,0.26,21.77,110.2182,25.46,26.66,24.87,0,111.3,13.1,26.30,25.4
"2009-07-21 01:16:30",1080442,9.27,65.4,0.837,0.076,21.79,110.202,25.41,26.61,24.76,0,111.3,13.1,26.25,27.4
"2009-07-21 01:17:00",1080443,9.22,67.56,0.721,0.064,21.78,110.1843,25.37,26.57,24.52,0,111.3,13.1,26.21,29.6
"2009-07-21 01:17:30",1080444,9.12,68.52,0.433,0.127,21.77,110.1692,25.33,26.51,24.63,0,111.3,13.1,26.17,30.5
"2009-07-21 01:18:00",1080445,8.57,63.85,2.134,0.331,21.68,110.1549,25.29,26.49,25.09,0,111.3,13.1,26.13,25.8
"2009-07-21 01:18:30",1080446,8.13,62.07,1.791,0.303,21.63,110.1364,25.24,26.45,25.36,0,111.3,13.1,26.09,24.1
"2009-07-21 01:19:00",1080447,8.4,64.51,2.194,0.173,21.65,110.1263,25.22,26.4,25.18,0,111.3,13.1,26.06,26.5
"2009-07-21 01:19:30",1080448,8.59,62.91,1.747,0.179,21.66,110.1049,25.16,26.37,24.73,0,111.3,13.1,26.00,24.9
"2009-07-21 01:20:00",1080449,8.22,60.55,2.774,0.191,21.59,110.0974,25.14,26.33,25.49,0,111.3,13.1,25.98,22.5
"2009-07-21 01:20:30",1080450,8.27,60.87,1.106,0.192,21.59,110.0786,25.1,26.29,25.23,0,111.3,13.1,25.94,22.9
"2009-07-21 01:21:00",1080451,7.962,60.2,1.733,0.223,21.58,110.0679,25.07,26.27,25.9,0,111.3,13.1,25.91,22.2
"2009-07-21 01:21:30",1080452,7.115,60.34,1.744,0.317,21.57,110.06,25.05,26.22,26.44,0,111.3,13.11,25.89,22.3
"2009-07-21 01:22:00",1080453,7.081,57.5,2.705,0.297,21.54,110.0396,25,26.19,26.49,0,111.3,13.11,25.84,19.5
"2009-07-21 01:22:30",1080454,7.385,61.51,1.705,0.426,21.53,110.034,24.98,26.17,26.85,0,111.3,13.11,25.82,23.5
"2009-07-21 01:23:00",1080455,8.2,62.6,2.858,0.697,21.46,110.0326,24.98,26.13,27.14,0,111.3,13.11,25.82,24.6
"2009-07-21 01:23:30",1080456,8.17,58.52,1.844,0.388,21.41,110.0125,24.93,26.11,27.65,0,111.3,13.1,25.77,20.5
"2009-07-21 01:24:00",1080457,8.26,61.59,1.798,0.439,21.42,110.0071,24.91,26.07,27.93,0,111.3,13.1,25.75,23.6
"2009-07-21 01:24:30",1080458,9.59,60.38,2.776,0.569,21.45,110.0003,24.9,26.05,26.92,0,111.3,13.1,25.73,22.4
"2009-07-21 01:25:00",1080459,10.52,60.94,1.625,0.317,21.46,109.9819,24.85,26.01,26.51,0,111.3,13.1,25.69,22.9
"2009-07-21 01:25:30",1080460,10.53,62.49,0.75,0.127,21.56,109.9769,24.84,25.98,25.55,0,111.3,13.1,25.67,24.5
"2009-07-21 01:26:00",1080461,10.89,62.25,0.941,0.165,21.55,109.9555,24.78,25.94,25.54,0,111.3,13.1,25.62,24.2
"2009-07-21 01:26:30",1080462,10.65,65.7,1.065,0.288,21.54,109.9565,24.78,25.91,26.18,0,111.2,13.1,25.62,27.7
"2009-07-21 01:27:00",1080463,10.24,66.76,0.801,0.095,21.54,109.934,24.73,25.87,26.81,0,111.3,13.1,25.56,28.8
"2009-07-21 01:27:30",1080464,10.34,65.2,1.192,0.156,21.57,109.9267,24.71,25.84,26.02,0,111.3,13.1,25.54,27.2
"2009-07-21 01:28:00",1080465,10.34,64.7,0.891,0.12,21.56,109.9253,24.7,25.82,25.62,0,111.2,13.1,25.54,26.7
"2009-07-21 01:28:30",1080466,10.41,64.39,0.593,0.098,21.53,109.9066,24.65,25.78,25.63,0,111.2,13.1,25.49,26.4
"2009-07-21 01:29:00",1080467,10.45,65.09,0.938,0.141,21.54,109.896,24.63,25.75,25.9,0,111.2,13.11,25.47,27.1
"2009-07-21 01:29:30",1080468,10.48,65.16,0.937,0.093,21.52,109.898,24.63,25.73,25.38,0,111.2,13.11,25.47,27.2
"2009-07-21 01:30:00",1080469,10.34,63.34,0.522,0.106,21.53,109.8903,24.61,25.68,25.29,0,111.2,13.11,25.45,25.3
"2009-07-21 01:30:30",1080470,10.41,64.25,0.912,0.055,21.52,109.8739,24.57,25.67,25.17,0,111.2,13.12,25.41,26.2
"2009-07-21 01:31:00",1080471,10.47,64.05,0.578,0.059,21.5,109.868,24.56,25.64,25.18,0,111.2,13.12,25.39,26.1
"2009-07-21 01:31:30",1080472,10.32,64.16,0.366,0.089,21.52,109.8681,24.56,25.63,25.23,0,111.2,13.12,25.39,26.2
"2009-07-21 01:32:00",1080473,10.38,62.63,0.787,0.092,21.52,109.8588,24.53,25.6,25.71,0,111.2,13.12,25.37,24.6
"2009-07-21 01:32:30",1080474,10.38,62.53,0.351,0.126,21.49,109.8442,24.49,25.58,26.41,0,111.2,13.12,25.33,24.5
"2009-07-21 01:33:00",1080475,10.44,63.07,0.704,0.059,21.49,109.8378,24.48,25.56,26.66,0,111.2,13.12,25.32,25.1
"2009-07-21 01:33:30",1080476,10.46,63.98,0.859,0.053,21.46,109.835,24.47,25.54,26.57,0,111.2,13.12,25.31,26.0
"2009-07-21 01:34:00",1080477,10.62,64.48,0.77,0.123,21.43,109.8335,24.47,25.54,26.46,0,111.2,13.12,25.30,26.5
"2009-07-21 01:34:30",1080478,10.85,66.69,1.316,0.182,21.33,109.8184,24.43,25.51,27.31,0,111.2,13.12,25.27,28.7
"2009-07-21 01:35:00",1080479,11.07,66.96,0.635,0.194,21.36,109.8063,24.4,25.49,27.4,0,111.2,13.12,25.23,29.0
"2009-07-21 01:35:30",1080480,11.05,66.24,0.903,0.144,21.33,109.8013,24.38,25.47,27.53,0,111.2,13.12,25.22,28.2
"2009-07-21 01:36:00",1080481,10.96,64.33,0.753,0.112,21.27,109.8007,24.38,25.46,28.16,0,111.2,13.12,25.22,26.3
"2009-07-21 01:36:30",1080482,10.96,64.61,0.932,0.283,21.3,109.7837,24.34,25.44,28.54,0,111.2,13.12,25.18,26.6
"2009-07-21 01:37:00",1080483,11.26,66.1,0.752,0.08,21.31,109.7688,24.3,25.42,28.46,0,111.2,13.12,25.14,28.1
"2009-07-21 01:37:30",1080484,11.39,65.46,0.595,0.108,21.24,109.7633,24.29,25.38,28.69,0,111.2,13.12,25.12,27.5
"2009-07-21 01:38:00",1080485,11.5,64.89,1.178,0.163,21.26,109.743,24.23,25.36,28.65,0,111.2,13.12,25.07,26.9
"2009-07-21 01:38:30",1080486,11.26,64.33,1.009,0.135,21.29,109.7438,24.24,25.33,28.64,0,111.2,13.12,25.07,26.3
"2009-07-21 01:39:00",1080487,11.42,65.28,0.669,0.166,21.31,109.7298,24.2,25.3,28.43,0,111.2,13.12,25.04,27.3
"2009-07-21 01:39:30",1080488,11.32,64.73,1.1,0.136,21.3,109.7183,24.17,25.27,28.39,0,111.2,13.12,25.01,26.7
"2009-07-21 01:40:00",1080489,11.42,66.6,1.057,0.195,21.32,109.7126,24.16,25.24,27.59,0,111.2,13.12,24.99,28.6
"2009-07-21 01:40:30",1080490,11.68,67.96,0.523,0.125,21.28,109.6977,24.12,25.21,26.87,0,111.2,13.12,24.95,30.0
"2009-07-21 01:41:00",1080491,11.65,68.5,0.426,0.187,21.35,109.6924,24.1,25.17,26.79,0,111.2,13.12,24.94,30.5
"2009-07-21 01:41:30",1080492,11.69,69.33,0.552,0.157,21.4,109.6912,24.1,25.14,26.77,0,111.2,13.12,24.94,31.3
"2009-07-21 01:42:00",1080493,11.84,68.27,0.71,0.168,21.41,109.6715,24.05,25.12,26.72,0,111.2,13.12,24.89,30.3
"2009-07-21 01:42:30",1080494,11.92,67.75,0.592,0.183,21.41,109.6625,24.03,25.11,26.39,0,111.1,13.12,24.86,29.8
"2009-07-21 01:43:00",1080495,12.05,67.68,0.609,0.049,21.43,109.6615,24.02,25.08,26.3,0,111.1,13.12,24.86,29.7
"2009-07-21 01:43:30",1080496,12.03,67.55,0.494,0.11,21.42,109.6649,24.03,25.06,26.27,0,111.1,13.12,24.87,29.6
"2009-07-21 01:44:00",1080497,12.04,67.85,0.56,0.149,21.45,109.6575,24.01,25.04,26.21,0,111.1,13.12,24.85,29.8
"2009-07-21 01:44:30",1080498,12.06,67.91,0.573,0.097,21.44,109.6445,23.98,25.02,26.22,0,111.1,13.12,24.82,29.9
"2009-07-21 01:45:00",1080499,12.15,68.3,0.374,0.19,21.46,109.6406,23.97,25,26.24,0,111.1,13.12,24.81,30.3
"2009-07-21 01:45:30",1080500,12.2,68.59,0.344,0.077,21.47,109.6367,23.96,24.98,26.21,0,111.1,13.12,24.80,30.6
"2009-07-21 01:46:00",1080501,12.17,68.65,0.334,0.071,21.45,109.6361,23.96,25,26.11,0,111.1,13.12,24.80,30.7
"2009-07-21 01:46:30",1080502,12.24,68.97,0.201,0.041,21.42,109.6361,23.96,24.97,26.1,0,111.1,13.13,24.80,31.0
"2009-07-21 01:47:00",1080503,12.15,69.13,0.41,0.057,21.46,109.6361,23.96,24.97,26.12,0,111.1,13.13,24.80,31.1
"2009-07-21 01:47:30",1080504,12.06,69.98,0.184,0.071,21.51,109.6358,23.96,24.95,26.2,0,111.1,13.13,24.79,32.0